Change the Weather History Date:

Thursday, May 9, 2013

  Actual Average Record
Temperature  
Mean Temperature 63 °F 61 °F  
Max Temperature 75 °F 72 °F 93 °F (1963)
Min Temperature 51 °F 50 °F 36 °F (1966)
Degree Days  
Heating Degree Days 2 5  
Month to date heating degree days 64 57  
Since 1 July heating degree days 4414 4672  
Cooling Degree Days 0 1  
Month to date cooling degree days 0 9  
Year to date cooling degree days 26 23  
Growing Degree Days 13 (Base 50)    
Moisture  
Dew Point 54 °F    
Average Humidity 75    
Maximum Humidity 100    
Minimum Humidity 49    
Precipitation  
Precipitation 0.00 in 0.13 in 1.85 in (2008)
Month to date precipitation 1.00 1.06  
Year to date precipitation 11.43 14.10  
Snow  
Snow 0.00 in 0.00 in T in (1923)
Month to date snowfall 0.0 0.0  
Since 1 July snowfall 8.0 20.1  
Snow Depth 0.00 in    
Sea Level Pressure  
Sea Level Pressure 29.95 in    
Wind  
Wind Speed 4 mph (West)    
Max Wind Speed 14 mph    
Max Gust Speed 23 mph    
Visibility 6 miles    
Events Fog    
T = Trace of Precipitation, MM = Missing Value Source: NWS Daily Summary

Daily Weather History Graph

Daily Weather History Graph

Search for Another Location

Airport or City:

Trip Planner

Search our weather history database for the weather conditions in past years. The results will help you decide how hot, cold, wet, or windy it might be!

Date:

Astronomy

May. 09, 2013 Rise Set
Actual Time 5:59 AM EDT 8:07 PM EDT
Civil Twilight 5:29 AM EDT 8:37 PM EDT
Nautical Twilight 4:53 AM EDT 9:13 PM EDT
Astronomical Twilight 4:13 AM EDT 9:53 PM EDT
Moon 5:42 AM EDT (5/9) 8:00 PM EDT (5/9)
Length of Visible Light 15h 08m
Length of Day
14h 08m
Waning Crescent, 0% of the Moon is Illuminated
May 9
Waning Crescent
May 9
New
May 18
First Quarter
May 25
Full
May 31
Last Quarter

Hourly Weather History & Observations

Time (EDT) Temp. Dew Point Humidity Pressure Visibility Wind Dir Wind Speed Gust Speed Precip Events Conditions
12:50 AM 55.4 °F 55.4 °F 100% 29.96 in 9.0 mi NW 3.5 mph - N/A Fog Patches of Fog
12:54 AM 55.9 °F 55.9 °F 100% 29.96 in 9.0 mi NW 3.5 mph - N/A Fog Patches of Fog
1:05 AM 57.2 °F 55.4 °F 94% 29.95 in 9.0 mi Calm Calm - N/A Fog Patches of Fog
1:21 AM 55.4 °F 55.4 °F 100% 29.95 in 7.0 mi Calm Calm - N/A Fog Patches of Fog
1:51 AM 55.4 °F 53.6 °F 94% 29.94 in 8.0 mi Calm Calm - N/A Fog Shallow Fog
1:54 AM 54.0 °F 54.0 °F 100% 29.94 in 8.0 mi Calm Calm - N/A Fog Shallow Fog
2:17 AM 53.6 °F 53.6 °F 100% 29.94 in 2.0 mi West 3.5 mph - N/A   Mostly Cloudy
2:21 AM 53.6 °F 53.6 °F 100% 29.93 in 2.5 mi West 3.5 mph - N/A   Scattered Clouds
2:30 AM 53.6 °F 53.6 °F 100% 29.93 in 2.0 mi West 3.5 mph - N/A   Mostly Cloudy
2:38 AM 55.4 °F 55.4 °F 100% 29.93 in 3.0 mi Calm Calm - N/A   Mostly Cloudy
2:51 AM 55.4 °F 53.6 °F 94% 29.93 in 4.0 mi Calm Calm - N/A   Scattered Clouds
2:54 AM 54.0 °F 54.0 °F 100% 29.93 in 4.0 mi Calm Calm - N/A   Scattered Clouds
3:54 AM 51.1 °F 51.1 °F 100% 29.92 in 3.0 mi West 3.5 mph - N/A Fog Patches of Fog
4:07 AM 51.8 °F 51.8 °F 100% 29.93 in 2.0 mi Calm Calm - N/A Fog Patches of Fog
4:12 AM 51.8 °F 51.8 °F 100% 29.93 in 1.0 mi West 3.5 mph - N/A Fog Patches of Fog
4:19 AM 51.8 °F 51.8 °F 100% 29.93 in 0.5 mi WNW 4.6 mph - N/A Fog Fog
4:36 AM 51.8 °F 51.8 °F 100% 29.92 in 0.5 mi West 5.8 mph - N/A Fog Fog
4:45 AM 51.8 °F 51.8 °F 100% 29.93 in 0.2 mi West 3.5 mph - N/A Fog Fog
4:54 AM 52.0 °F 52.0 °F 100% 29.92 in 0.2 mi Calm Calm - N/A Fog Fog
5:40 AM 53.6 °F 53.6 °F 100% 29.92 in 0.2 mi Calm Calm - N/A Fog Fog
5:54 AM 53.1 °F 53.1 °F 100% 29.93 in 0.5 mi West 3.5 mph - N/A Fog Fog
6:16 AM 53.6 °F 53.6 °F 100% 29.94 in 1.0 mi West 3.5 mph - N/A   Overcast
6:19 AM 53.6 °F 53.6 °F 100% 29.94 in 2.0 mi Calm Calm - N/A   Overcast
6:22 AM 53.6 °F 53.6 °F 100% 29.94 in 2.0 mi Calm Calm - N/A   Overcast
6:54 AM 54.0 °F 54.0 °F 100% 29.95 in 2.5 mi Calm Calm - N/A   Overcast
7:28 AM 53.6 °F 53.6 °F 100% 29.96 in 3.0 mi West 6.9 mph - N/A   Mostly Cloudy
7:54 AM 55.0 °F 53.1 °F 93% 29.96 in 4.0 mi West 5.8 mph - N/A   Overcast
8:54 AM 55.9 °F 54.0 °F 93% 29.97 in 6.0 mi WSW 3.5 mph - N/A   Mostly Cloudy
9:36 AM 57.2 °F 55.4 °F 94% 29.98 in 8.0 mi WSW 5.8 mph - N/A   Mostly Cloudy
9:54 AM 59.0 °F 55.0 °F 87% 29.99 in 8.0 mi WSW 5.8 mph - N/A   Mostly Cloudy
10:12 AM 60.8 °F 55.4 °F 82% 29.98 in 9.0 mi WSW 6.9 mph - N/A   Mostly Cloudy
10:54 AM 62.1 °F 55.0 °F 78% 29.99 in 10.0 mi Variable 4.6 mph - N/A   Mostly Cloudy
11:54 AM 66.0 °F 55.0 °F 68% 29.97 in 10.0 mi WSW 8.1 mph - N/A   Mostly Cloudy
12:54 PM 69.8 °F 55.4 °F 60% 29.95 in 10.0 mi SW 9.2 mph 23.0 mph N/A   Mostly Cloudy
1:54 PM 71.1 °F 55.0 °F 57% 29.94 in 10.0 mi West 9.2 mph - N/A   Mostly Cloudy
2:54 PM 73.0 °F 54.0 °F 51% 29.93 in 10.0 mi WNW 8.1 mph 16.1 mph N/A   Mostly Cloudy
3:54 PM 73.0 °F 53.1 °F 49% 29.93 in 10.0 mi West 8.1 mph - N/A   Mostly Cloudy
4:54 PM 73.0 °F 54.0 °F 51% 29.93 in 10.0 mi West 8.1 mph - N/A   Mostly Cloudy
5:54 PM 73.0 °F 55.0 °F 53% 29.93 in 10.0 mi West 9.2 mph - N/A   Mostly Cloudy
6:54 PM 72.0 °F 55.0 °F 55% 29.94 in 10.0 mi WSW 8.1 mph - N/A   Mostly Cloudy
7:54 PM 70.0 °F 57.0 °F 63% 29.96 in 10.0 mi Calm Calm - N/A   Mostly Cloudy
8:54 PM 66.9 °F 57.9 °F 73% 29.96 in 10.0 mi SW 3.5 mph - N/A   Scattered Clouds
9:54 PM 64.0 °F 57.9 °F 80% 29.99 in 10.0 mi Calm Calm - N/A   Scattered Clouds
10:54 PM 62.1 °F 57.9 °F 86% 29.99 in 10.0 mi Calm Calm - N/A   Partly Cloudy
11:54 PM 59.0 °F 57.0 °F 93% 29.99 in 10.0 mi Calm Calm - N/A   Partly Cloudy